Вернуться в каталог

STARLINK-34442

АктивенСвязьVLEO
NORAD 64672·PAYLOAD·🇺🇸 United States

Запущен Jun 28, 2025 с Cape Canaveral Space Force Station

Loading…

Ближайшие Пролёты (ближайшие 24 часа)

TLE

СвежийSource: CelesTrak SupGP

Эпоха: Sep 15, 2026, 02:48 UTC

1 64672C 25139J   26258.11715278  .00050463  00000+0  14898-2 0  2587
2 64672  53.1585 322.7962 0001489 109.8664  46.4066 15.34390223    10

Отслеживайте STARLINK-34442 в реальном времени с AllMySat

Download on the App Store